Location: Overspoor
(51.4747°N, 5.6641°E)
Time: 13:03:08
(UTC+02:00)

NANOSAT C BR1 - Pass Details

Date: 30 June 2022
Orbit: 584 x 599 km, 98.0° (Epoch: 07 August)

Event Time Altitude Azimuth Distance (km) Brightness Sun altitude
Rises 03:01:03 0° 23° (NNE) 2,849 ? -13.3°
Reaches altitude 10° 03:03:32 10° 37° (NE) 1,944 ? -13.2°
Maximum altitude 03:07:05 26° 94° (E) 1,197 ? -13.0°
Drops below altitude 10° 03:10:37 10° 151° (SSE) 1,936 ? -12.8°
Enters shadow 03:10:55 - 154° (SSE) 2,039 ? -12.8°
